Time,TemperatureF,DewpointF,PressureIn,WindDirection,WindDirectionDegrees,WindSpeedMPH,WindSpeedGustMPH,Humidity,HourlyPrecipIn,Conditions,Clouds,dailyrainin,SoftwareType,DateUTC
2013-03-04 00:01:00,32.0,24.0,29.56,WNW,301,5.0,-999.0,72,-99.99,,,-99.99,,2013-03-04 05:01:00,
2013-03-04 00:11:00,32.0,24.0,29.56,WNW,301,5.0,-999.0,72,-99.99,,,-99.99,,2013-03-04 05:11:00,
2013-03-04 00:22:00,32.0,24.0,29.56,West,271,4.0,-999.0,72,-99.99,,,-99.99,,2013-03-04 05:22:00,
2013-03-04 00:32:00,32.0,24.0,29.57,WNW,293,3.0,-999.0,72,-99.99,,,-99.99,,2013-03-04 05:32:00,
2013-03-04 00:42:00,32.0,24.0,29.57,WNW,293,3.0,-999.0,72,-99.99,,,-99.99,,2013-03-04 05:42:00,
2013-03-04 00:52:00,32.0,24.0,29.57,WNW,303,5.0,-999.0,72,-99.99,,,-99.99,,2013-03-04 05:52:00,
2013-03-04 01:02:00,32.0,24.0,29.56,WSW,253,5.0,-999.0,72,-99.99,,,-99.99,,2013-03-04 06:02:00,
2013-03-04 01:11:00,32.0,24.0,29.56,WSW,253,5.0,-999.0,72,-99.99,,,-99.99,,2013-03-04 06:11:00,
2013-03-04 01:22:00,31.0,23.0,29.56,WNW,300,5.0,-999.0,72,-99.99,,,-99.99,,2013-03-04 06:22:00,
2013-03-04 01:32:00,31.0,23.0,29.56,WNW,293,3.0,-999.0,73,-99.99,,,-99.99,,2013-03-04 06:32:00,
2013-03-04 01:42:00,31.0,23.0,29.56,WNW,293,3.0,-999.0,73,-99.99,,,-99.99,,2013-03-04 06:42:00,
2013-03-04 01:51:00,31.0,23.0,29.57,West,271,4.0,-999.0,73,-99.99,,,-99.99,,2013-03-04 06:51:00,
2013-03-04 02:02:00,31.0,23.0,29.57,WNW,302,5.0,-999.0,73,-99.99,,,-99.99,,2013-03-04 07:02:00,
2013-03-04 02:11:00,31.0,23.0,29.57,WNW,302,5.0,-999.0,73,-99.99,,,-99.99,,2013-03-04 07:11:00,
2013-03-04 02:22:00,31.0,24.0,29.57,WNW,282,4.0,-999.0,74,-99.99,,,-99.99,,2013-03-04 07:22:00,
2013-03-04 02:32:00,31.0,23.0,29.57,West,269,5.0,-999.0,73,-99.99,,,-99.99,,2013-03-04 07:32:00,
2013-03-04 02:42:00,31.0,23.0,29.57,West,269,5.0,-999.0,73,-99.99,,,-99.99,,2013-03-04 07:42:00,
2013-03-04 02:52:00,30.0,23.0,29.57,West,279,5.0,-999.0,74,-99.99,,,-99.99,,2013-03-04 07:52:00,
2013-03-04 03:02:00,30.0,23.0,29.57,WNW,285,5.0,-999.0,74,-99.99,,,-99.99,,2013-03-04 08:02:00,
2013-03-04 03:12:00,30.0,23.0,29.57,WNW,285,5.0,-999.0,74,-99.99,,,-99.99,,2013-03-04 08:12:00,
2013-03-04 03:22:00,30.0,23.0,29.57,West,266,5.0,-999.0,74,-99.99,,,-99.99,,2013-03-04 08:22:00,
2013-03-04 03:32:00,30.0,23.0,29.56,NNW,327,3.0,-999.0,75,-99.99,,,-99.99,,2013-03-04 08:32:00,
2013-03-04 03:42:00,30.0,23.0,29.56,NNW,327,3.0,-999.0,75,-99.99,,,-99.99,,2013-03-04 08:42:00,
2013-03-04 03:52:00,30.0,23.0,29.57,WNW,300,6.0,-999.0,74,-99.99,,,-99.99,,2013-03-04 08:52:00,
2013-03-04 04:02:00,30.0,23.0,29.57,WNW,303,6.0,-999.0,74,-99.99,,,-99.99,,2013-03-04 09:02:00,
2013-03-04 04:11:00,30.0,23.0,29.57,WNW,303,6.0,-999.0,74,-99.99,,,-99.99,,2013-03-04 09:11:00,
2013-03-04 04:22:00,29.0,22.0,29.57,West,276,4.0,-999.0,75,-99.99,,,-99.99,,2013-03-04 09:22:00,
2013-03-04 04:32:00,29.0,22.0,29.57,West,273,3.0,-999.0,75,-99.99,,,-99.99,,2013-03-04 09:32:00,
2013-03-04 04:42:00,29.0,22.0,29.57,West,273,3.0,-999.0,75,-99.99,,,-99.99,,2013-03-04 09:42:00,
2013-03-04 04:52:00,29.0,22.0,29.57,West,281,3.0,-999.0,75,-99.99,,,-99.99,,2013-03-04 09:52:00,
2013-03-04 05:01:00,29.0,22.0,29.58,WSW,248,3.0,-999.0,75,-99.99,,,-99.99,,2013-03-04 10:01:00,
2013-03-04 05:12:00,29.0,22.0,29.58,WSW,248,3.0,-999.0,75,-99.99,,,-99.99,,2013-03-04 10:12:00,
2013-03-04 05:22:00,29.0,22.0,29.58,West,277,2.0,-999.0,75,-99.99,,,-99.99,,2013-03-04 10:22:00,
2013-03-04 05:32:00,29.0,22.0,29.58,West,269,5.0,-999.0,74,-99.99,,,-99.99,,2013-03-04 10:32:00,
2013-03-04 05:42:00,29.0,22.0,29.58,West,269,5.0,-999.0,74,-99.99,,,-99.99,,2013-03-04 10:42:00,
2013-03-04 05:52:00,29.0,21.0,29.58,WNW,285,4.0,-999.0,73,-99.99,,,-99.99,,2013-03-04 10:52:00,
2013-03-04 06:02:00,28.0,20.0,29.58,WNW,291,3.0,-999.0,73,-99.99,,,-99.99,,2013-03-04 11:02:00,
2013-03-04 06:11:00,28.0,20.0,29.58,WNW,291,3.0,-999.0,73,-99.99,,,-99.99,,2013-03-04 11:11:00,
2013-03-04 06:22:00,28.0,20.0,29.59,WNW,282,2.0,-999.0,73,-99.99,,,-99.99,,2013-03-04 11:22:00,
2013-03-04 06:32:00,28.0,20.0,29.59,WNW,288,3.0,-999.0,73,-99.99,,,-99.99,,2013-03-04 11:32:00,
2013-03-04 06:42:00,28.0,20.0,29.59,WNW,288,3.0,-999.0,73,-99.99,,,-99.99,,2013-03-04 11:42:00,
2013-03-04 06:52:00,28.0,20.0,29.59,WSW,241,4.0,-999.0,72,-99.99,,,-99.99,,2013-03-04 11:52:00,
2013-03-04 07:02:00,27.0,19.0,29.59,West,280,3.0,-999.0,72,-99.99,,,-99.99,,2013-03-04 12:02:00,
2013-03-04 07:11:00,27.0,19.0,29.59,West,280,3.0,-999.0,72,-99.99,,,-99.99,,2013-03-04 12:11:00,
2013-03-04 07:22:00,27.0,19.0,29.59,WSW,245,5.0,-999.0,72,-99.99,,,-99.99,,2013-03-04 12:22:00,
2013-03-04 07:32:00,28.0,20.0,29.59,WNW,288,2.0,-999.0,71,-99.99,,,-99.99,,2013-03-04 12:32:00,
2013-03-04 07:42:00,28.0,20.0,29.59,WNW,288,2.0,-999.0,71,-99.99,,,-99.99,,2013-03-04 12:42:00,
2013-03-04 07:52:00,28.0,19.0,29.60,NW,319,8.0,-999.0,69,-99.99,,,-99.99,,2013-03-04 12:52:00,
2013-03-04 08:02:00,29.0,20.0,29.60,West,268,5.0,-999.0,69,-99.99,,,-99.99,,2013-03-04 13:02:00,
2013-03-04 08:11:00,29.0,20.0,29.60,West,268,5.0,-999.0,69,-99.99,,,-99.99,,2013-03-04 13:11:00,
2013-03-04 08:22:00,29.0,20.0,29.60,WSW,240,5.0,-999.0,68,-99.99,,,-99.99,,2013-03-04 13:22:00,
2013-03-04 08:32:00,29.0,19.0,29.60,WNW,288,5.0,-999.0,67,-99.99,,,-99.99,,2013-03-04 13:32:00,
2013-03-04 08:42:00,29.0,19.0,29.60,WNW,288,5.0,-999.0,67,-99.99,,,-99.99,,2013-03-04 13:42:00,
2013-03-04 08:52:00,30.0,20.0,29.59,West,273,6.0,-999.0,66,-99.99,,,-99.99,,2013-03-04 13:52:00,
2013-03-04 09:01:00,31.0,20.0,29.59,WNW,302,8.0,-999.0,64,-99.99,,,-99.99,,2013-03-04 14:01:00,
2013-03-04 09:12:00,31.0,20.0,29.59,WNW,302,8.0,-999.0,64,-99.99,,,-99.99,,2013-03-04 14:12:00,
2013-03-04 09:22:00,31.0,20.0,29.58,West,277,7.0,-999.0,64,-99.99,,,-99.99,,2013-03-04 14:22:00,
2013-03-04 09:32:00,33.0,21.0,29.58,WSW,248,6.0,-999.0,62,-99.99,,,-99.99,,2013-03-04 14:32:00,
2013-03-04 09:42:00,33.0,21.0,29.58,WSW,248,6.0,-999.0,62,-99.99,,,-99.99,,2013-03-04 14:42:00,
2013-03-04 09:52:00,33.0,21.0,29.57,West,270,9.0,-999.0,60,-99.99,,,-99.99,,2013-03-04 14:52:00,
2013-03-04 10:02:00,34.0,21.0,29.57,NW,312,7.0,-999.0,59,-99.99,,,-99.99,,2013-03-04 15:02:00,
2013-03-04 10:11:00,34.0,21.0,29.57,NW,312,7.0,-999.0,59,-99.99,,,-99.99,,2013-03-04 15:11:00,
2013-03-04 10:22:00,34.0,21.0,29.58,WNW,288,8.0,-999.0,59,-99.99,,,-99.99,,2013-03-04 15:22:00,
2013-03-04 10:32:00,34.0,21.0,29.58,NW,309,7.0,-999.0,58,-99.99,,,-99.99,,2013-03-04 15:32:00,
2013-03-04 10:42:00,34.0,21.0,29.58,NW,309,7.0,-999.0,58,-99.99,,,-99.99,,2013-03-04 15:42:00,
2013-03-04 10:52:00,35.0,21.0,29.57,WSW,258,8.0,-999.0,57,-99.99,,,-99.99,,2013-03-04 15:52:00,
2013-03-04 11:03:00,36.0,21.0,29.57,WNW,287,7.0,-999.0,55,-99.99,,,-99.99,,2013-03-04 16:03:00,
2013-03-04 11:11:00,36.0,21.0,29.57,WNW,287,7.0,-999.0,55,-99.99,,,-99.99,,2013-03-04 16:11:00,
2013-03-04 11:21:00,35.0,21.0,29.57,WSW,248,8.0,-999.0,56,-99.99,,,-99.99,,2013-03-04 16:21:00,
2013-03-04 11:32:00,36.0,21.0,29.57,WSW,252,8.0,-999.0,55,-99.99,,,-99.99,,2013-03-04 16:32:00,
2013-03-04 11:42:00,36.0,21.0,29.57,WSW,252,8.0,-999.0,55,-99.99,,,-99.99,,2013-03-04 16:42:00,
2013-03-04 11:52:00,35.0,21.0,29.57,WNW,282,6.0,-999.0,56,-99.99,,,-99.99,,2013-03-04 16:52:00,
2013-03-04 12:02:00,35.0,21.0,29.57,NNW,333,7.0,-999.0,56,-99.99,,,-99.99,,2013-03-04 17:02:00,
2013-03-04 12:11:00,35.0,21.0,29.57,NNW,333,7.0,-999.0,56,-99.99,,,-99.99,,2013-03-04 17:11:00,
2013-03-04 12:22:00,36.0,21.0,29.57,West,259,7.0,-999.0,55,-99.99,,,-99.99,,2013-03-04 17:22:00,
2013-03-04 12:32:00,36.0,21.0,29.57,WSW,257,7.0,-999.0,55,-99.99,,,-99.99,,2013-03-04 17:32:00,
2013-03-04 12:42:00,36.0,21.0,29.57,WSW,257,7.0,-999.0,55,-99.99,,,-99.99,,2013-03-04 17:42:00,
2013-03-04 12:52:00,35.0,21.0,29.57,WNW,298,8.0,-999.0,56,-99.99,,,-99.99,,2013-03-04 17:52:00,
2013-03-04 13:02:00,36.0,21.0,29.56,NW,320,7.0,-999.0,55,-99.99,,,-99.99,,2013-03-04 18:02:00,
2013-03-04 13:11:00,36.0,21.0,29.56,NW,320,7.0,-999.0,55,-99.99,,,-99.99,,2013-03-04 18:11:00,
2013-03-04 13:22:00,37.0,22.0,29.55,NW,321,7.0,-999.0,54,-99.99,,,-99.99,,2013-03-04 18:22:00,
2013-03-04 13:32:00,37.0,22.0,29.55,WNW,285,7.0,-999.0,55,-99.99,,,-99.99,,2013-03-04 18:32:00,
2013-03-04 13:42:00,37.0,22.0,29.55,WNW,285,7.0,-999.0,55,-99.99,,,-99.99,,2013-03-04 18:42:00,
2013-03-04 13:52:00,37.0,24.0,29.55,NW,310,7.0,-999.0,58,-99.99,,,-99.99,,2013-03-04 18:52:00,
2013-03-04 14:02:00,37.0,22.0,29.55,WNW,295,7.0,-999.0,55,-99.99,,,-99.99,,2013-03-04 19:02:00,
2013-03-04 14:12:00,37.0,22.0,29.55,WNW,295,7.0,-999.0,55,-99.99,,,-99.99,,2013-03-04 19:12:00,
2013-03-04 14:22:00,37.0,22.0,29.55,WNW,298,9.0,-999.0,55,-99.99,,,-99.99,,2013-03-04 19:22:00,
2013-03-04 14:32:00,37.0,23.0,29.55,WNW,285,7.0,-999.0,56,-99.99,,,-99.99,,2013-03-04 19:32:00,
2013-03-04 14:42:00,37.0,23.0,29.55,WNW,285,7.0,-999.0,56,-99.99,,,-99.99,,2013-03-04 19:42:00,
2013-03-04 14:52:00,38.0,25.0,29.55,WNW,302,7.0,-999.0,58,-99.99,,,-99.99,,2013-03-04 19:52:00,
2013-03-04 15:02:00,38.0,24.0,29.55,West,275,5.0,-999.0,57,-99.99,,,-99.99,,2013-03-04 20:02:00,
2013-03-04 15:12:00,38.0,24.0,29.55,West,275,5.0,-999.0,57,-99.99,,,-99.99,,2013-03-04 20:12:00,
2013-03-04 15:22:00,38.0,25.0,29.56,West,273,4.0,-999.0,58,-99.99,,,-99.99,,2013-03-04 20:22:00,
2013-03-04 15:32:00,38.0,25.0,29.56,West,280,4.0,-999.0,58,-99.99,,,-99.99,,2013-03-04 20:32:00,
2013-03-04 15:42:00,38.0,25.0,29.56,West,280,4.0,-999.0,58,-99.99,,,-99.99,,2013-03-04 20:42:00,
2013-03-04 15:52:00,37.0,24.0,29.56,NW,305,9.0,-999.0,59,-99.99,,,-99.99,,2013-03-04 20:52:00,
2013-03-04 16:02:00,36.0,24.0,29.56,West,261,6.0,-999.0,61,-99.99,,,-99.99,,2013-03-04 21:02:00,
2013-03-04 16:12:00,36.0,24.0,29.56,West,261,6.0,-999.0,61,-99.99,,,-99.99,,2013-03-04 21:12:00,
2013-03-04 16:22:00,36.0,24.0,29.56,WNW,291,6.0,-999.0,62,-99.99,,,-99.99,,2013-03-04 21:22:00,
2013-03-04 16:32:00,36.0,24.0,29.57,WNW,286,6.0,-999.0,62,-99.99,,,-99.99,,2013-03-04 21:32:00,
2013-03-04 16:42:00,36.0,24.0,29.57,WNW,286,6.0,-999.0,62,-99.99,,,-99.99,,2013-03-04 21:42:00,
2013-03-04 16:52:00,36.0,24.0,29.57,WNW,297,6.0,-999.0,61,-99.99,,,-99.99,,2013-03-04 21:52:00,
2013-03-04 17:02:00,36.0,24.0,29.57,WNW,292,6.0,-999.0,62,-99.99,,,-99.99,,2013-03-04 22:02:00,
2013-03-04 17:12:00,36.0,24.0,29.57,WNW,292,6.0,-999.0,62,-99.99,,,-99.99,,2013-03-04 22:12:00,
2013-03-04 17:22:00,35.0,24.0,29.58,NW,304,7.0,-999.0,64,-99.99,,,-99.99,,2013-03-04 22:22:00,
2013-03-04 17:32:00,34.0,24.0,29.59,WNW,295,6.0,-999.0,67,-99.99,,,-99.99,,2013-03-04 22:32:00,
2013-03-04 17:42:00,34.0,24.0,29.59,WNW,295,6.0,-999.0,67,-99.99,,,-99.99,,2013-03-04 22:42:00,
2013-03-04 17:52:00,34.0,25.0,29.60,SW,230,5.0,-999.0,70,-99.99,,,-99.99,,2013-03-04 22:52:00,
2013-03-04 18:02:00,33.0,24.0,29.61,WNW,300,6.0,-999.0,70,-99.99,,,-99.99,,2013-03-04 23:02:00,
2013-03-04 18:11:00,33.0,24.0,29.61,WNW,300,6.0,-999.0,70,-99.99,,,-99.99,,2013-03-04 23:11:00,
2013-03-04 18:22:00,33.0,25.0,29.62,NW,305,9.0,-999.0,72,-99.99,,,-99.99,,2013-03-04 23:22:00,
2013-03-04 18:32:00,32.0,25.0,29.63,WNW,296,5.0,-999.0,74,-99.99,,,-99.99,,2013-03-04 23:32:00,
2013-03-04 18:42:00,32.0,25.0,29.63,WNW,296,5.0,-999.0,74,-99.99,,,-99.99,,2013-03-04 23:42:00,
2013-03-04 18:52:00,32.0,25.0,29.63,NNW,333,4.0,-999.0,76,-99.99,,,-99.99,,2013-03-04 23:52:00,
2013-03-04 19:02:00,32.0,26.0,29.64,West,273,3.0,-999.0,77,-99.99,,,-99.99,,2013-03-05 00:02:00,
2013-03-04 19:12:00,32.0,26.0,29.64,West,273,3.0,-999.0,77,-99.99,,,-99.99,,2013-03-05 00:12:00,
2013-03-04 19:22:00,32.0,26.0,29.65,West,267,5.0,-999.0,78,-99.99,,,-99.99,,2013-03-05 00:22:00,
2013-03-04 19:32:00,31.0,25.0,29.64,West,279,3.0,-999.0,79,-99.99,,,-99.99,,2013-03-05 00:32:00,
2013-03-04 19:42:00,31.0,25.0,29.64,West,279,3.0,-999.0,79,-99.99,,,-99.99,,2013-03-05 00:42:00,
2013-03-04 19:51:00,31.0,25.0,29.65,NW,313,4.0,-999.0,78,-99.99,,,-99.99,,2013-03-05 00:51:00,
2013-03-04 20:02:00,31.0,24.0,29.65,NW,309,5.0,-999.0,76,-99.99,,,-99.99,,2013-03-05 01:02:00,
2013-03-04 20:12:00,31.0,24.0,29.65,NW,309,5.0,-999.0,76,-99.99,,,-99.99,,2013-03-05 01:12:00,
2013-03-04 20:22:00,32.0,25.0,29.65,West,272,7.0,-999.0,74,-99.99,,,-99.99,,2013-03-05 01:22:00,
2013-03-04 20:33:00,32.0,24.0,29.65,WNW,290,5.0,-999.0,73,-99.99,,,-99.99,,2013-03-05 01:33:00,
2013-03-04 20:42:00,32.0,24.0,29.65,WNW,290,5.0,-999.0,73,-99.99,,,-99.99,,2013-03-05 01:42:00,
2013-03-04 20:52:00,32.0,24.0,29.67,WNW,287,5.0,-999.0,72,-99.99,,,-99.99,,2013-03-05 01:52:00,
2013-03-04 21:02:00,32.0,24.0,29.67,WNW,285,3.0,-999.0,72,-99.99,,,-99.99,,2013-03-05 02:02:00,
2013-03-04 21:12:00,32.0,24.0,29.67,WNW,285,3.0,-999.0,72,-99.99,,,-99.99,,2013-03-05 02:12:00,
2013-03-04 21:22:00,32.0,23.0,29.67,WNW,290,5.0,-999.0,70,-99.99,,,-99.99,,2013-03-05 02:22:00,
2013-03-04 21:32:00,32.0,23.0,29.67,NW,311,6.0,-999.0,69,-99.99,,,-99.99,,2013-03-05 02:32:00,
2013-03-04 21:42:00,32.0,23.0,29.67,NW,311,6.0,-999.0,69,-99.99,,,-99.99,,2013-03-05 02:42:00,
2013-03-04 21:52:00,32.0,23.0,29.68,WNW,294,6.0,-999.0,69,-99.99,,,-99.99,,2013-03-05 02:52:00,
2013-03-04 22:02:00,32.0,23.0,29.68,WNW,301,7.0,-999.0,68,-99.99,,,-99.99,,2013-03-05 03:02:00,
2013-03-04 22:12:00,32.0,23.0,29.68,WNW,301,7.0,-999.0,68,-99.99,,,-99.99,,2013-03-05 03:12:00,
2013-03-04 22:22:00,31.0,22.0,29.69,WNW,300,6.0,-999.0,69,-99.99,,,-99.99,,2013-03-05 03:22:00,
2013-03-04 22:32:00,31.0,22.0,29.69,NW,306,4.0,-999.0,69,-99.99,,,-99.99,,2013-03-05 03:32:00,
2013-03-04 22:42:00,31.0,22.0,29.69,NW,306,4.0,-999.0,69,-99.99,,,-99.99,,2013-03-05 03:42:00,
2013-03-04 22:52:00,31.0,22.0,29.69,NW,306,4.0,-999.0,69,-99.99,,,-99.99,,2013-03-05 03:52:00,
2013-03-04 23:02:00,31.0,22.0,29.70,NW,305,5.0,-999.0,69,-99.99,,,-99.99,,2013-03-05 04:02:00,
2013-03-04 23:12:00,31.0,22.0,29.70,NW,305,5.0,-999.0,69,-99.99,,,-99.99,,2013-03-05 04:12:00,
2013-03-04 23:22:00,31.0,22.0,29.70,NNW,339,6.0,-999.0,69,-99.99,,,-99.99,,2013-03-05 04:22:00,
2013-03-04 23:32:00,31.0,22.0,29.70,WNW,290,4.0,-999.0,69,-99.99,,,-99.99,,2013-03-05 04:32:00,
2013-03-04 23:42:00,31.0,22.0,29.70,WNW,290,4.0,-999.0,69,-99.99,,,-99.99,,2013-03-05 04:42:00,
2013-03-04 23:52:00,31.0,22.0,29.71,NW,315,5.0,-999.0,70,-99.99,,,-99.99,,2013-03-05 04:52:00,